Time,TemperatureF,DewpointF,PressureIn,WindDirection,WindDirectionDegrees,WindSpeedMPH,WindSpeedGustMPH,Humidity,HourlyPrecipIn,Conditions,Clouds,dailyrainin,SoftwareType,DateUTC
2013-05-17 00:01:00,55.7,41.0,29.97,ESE,111,1.0,-999.0,58,-99.99,,,0.00,weatherlink.com 1.10,2013-05-17 04:01:00,
2013-05-17 00:16:00,55.2,40.0,29.97,East,92,1.0,-999.0,58,-99.99,,,0.00,weatherlink.com 1.10,2013-05-17 04:16:00,
2013-05-17 00:31:00,54.6,40.0,29.97,East,94,0.0,-999.0,59,-99.99,,,0.00,weatherlink.com 1.10,2013-05-17 04:31:00,
2013-05-17 00:46:00,54.1,40.0,29.97,SE,140,5.0,-999.0,60,-99.99,,,0.00,weatherlink.com 1.10,2013-05-17 04:46:00,
2013-05-17 01:01:00,53.6,40.0,29.97,East,84,1.0,-999.0,61,-99.99,,,0.00,weatherlink.com 1.10,2013-05-17 05:01:00,
2013-05-17 01:16:00,53.1,40.0,29.98,SE,125,0.0,-999.0,62,-99.99,,,0.00,weatherlink.com 1.10,2013-05-17 05:16:00,
2013-05-17 01:31:00,52.5,40.0,29.98,ESE,103,0.0,-999.0,62,-99.99,,,0.00,weatherlink.com 1.10,2013-05-17 05:31:00,
2013-05-17 01:46:00,52.1,40.0,29.98,SE,125,0.0,-999.0,64,-99.99,,,0.00,weatherlink.com 1.10,2013-05-17 05:46:00,
2013-05-17 02:01:00,51.7,40.0,29.99,SE,125,0.0,-999.0,65,-99.99,,,0.00,weatherlink.com 1.10,2013-05-17 06:01:00,
2013-05-17 02:16:00,51.1,40.0,29.99,SE,125,0.0,-999.0,66,-99.99,,,0.00,weatherlink.com 1.10,2013-05-17 06:16:00,
2013-05-17 02:31:00,50.6,40.0,29.99,SE,125,0.0,-999.0,67,-99.99,,,0.00,weatherlink.com 1.10,2013-05-17 06:31:00,
2013-05-17 02:46:00,50.2,40.0,29.99,SE,125,0.0,-999.0,69,-99.99,,,0.00,weatherlink.com 1.10,2013-05-17 06:46:00,
2013-05-17 03:01:00,49.8,40.0,29.99,SE,125,0.0,-999.0,70,-99.99,,,0.00,weatherlink.com 1.10,2013-05-17 07:01:00,
2013-05-17 03:16:00,49.4,40.0,29.99,SE,125,1.0,-999.0,71,-99.99,,,0.00,weatherlink.com 1.10,2013-05-17 07:16:00,
2013-05-17 03:31:00,49.1,41.0,29.99,SE,125,0.0,-999.0,73,-99.99,,,0.00,weatherlink.com 1.10,2013-05-17 07:31:00,
2013-05-17 03:46:00,48.7,41.0,29.99,SE,125,0.0,-999.0,74,-99.99,,,0.00,weatherlink.com 1.10,2013-05-17 07:46:00,
2013-05-17 04:01:00,48.2,41.0,29.99,SE,125,0.0,-999.0,76,-99.99,,,0.00,weatherlink.com 1.10,2013-05-17 08:01:00,
2013-05-17 04:17:00,48.0,41.0,29.99,SE,125,0.0,-999.0,77,-99.99,,,0.00,weatherlink.com 1.10,2013-05-17 08:17:00,
2013-05-17 04:32:00,47.9,41.0,30.00,SE,125,2.0,-999.0,77,-99.99,,,0.00,weatherlink.com 1.10,2013-05-17 08:32:00,
2013-05-17 04:47:00,47.9,41.0,30.00,SE,125,1.0,-999.0,77,-99.99,,,0.00,weatherlink.com 1.10,2013-05-17 08:47:00,
2013-05-17 05:02:00,48.2,41.0,30.01,SSE,150,5.0,-999.0,77,-99.99,,,0.00,weatherlink.com 1.10,2013-05-17 09:02:00,
2013-05-17 05:17:00,48.9,42.0,30.00,SE,128,2.0,-999.0,76,-99.99,,,0.00,weatherlink.com 1.10,2013-05-17 09:17:00,
2013-05-17 05:32:00,49.4,42.0,30.01,SE,134,2.0,-999.0,75,-99.99,,,0.00,weatherlink.com 1.10,2013-05-17 09:32:00,
2013-05-17 05:47:00,49.6,42.0,30.01,SSE,154,6.0,-999.0,74,-99.99,,,0.00,weatherlink.com 1.10,2013-05-17 09:47:00,
2013-05-17 06:02:00,49.3,41.0,30.02,ESE,122,2.0,-999.0,74,-99.99,,,0.00,weatherlink.com 1.10,2013-05-17 10:02:00,
2013-05-17 06:17:00,49.1,42.0,30.02,SE,139,4.0,-999.0,75,-99.99,,,0.00,weatherlink.com 1.10,2013-05-17 10:17:00,
2013-05-17 06:32:00,49.3,42.0,30.03,South,180,3.0,-999.0,75,-99.99,,,0.00,weatherlink.com 1.10,2013-05-17 10:32:00,
2013-05-17 06:47:00,49.9,42.0,30.03,SSW,192,5.0,-999.0,74,-99.99,,,0.00,weatherlink.com 1.10,2013-05-17 10:47:00,
2013-05-17 07:02:00,50.5,42.0,30.02,SSE,156,0.0,-999.0,73,-99.99,,,0.00,weatherlink.com 1.10,2013-05-17 11:02:00,
2013-05-17 07:17:00,50.8,42.0,30.03,SE,133,2.0,-999.0,73,-99.99,,,0.00,weatherlink.com 1.10,2013-05-17 11:17:00,
2013-05-17 07:32:00,51.2,43.0,30.05,SSE,152,2.0,-999.0,73,-99.99,,,0.00,weatherlink.com 1.10,2013-05-17 11:32:00,
2013-05-17 07:47:00,52.1,43.0,30.05,ESE,119,6.0,-999.0,72,-99.99,,,0.00,weatherlink.com 1.10,2013-05-17 11:47:00,
2013-05-17 08:02:00,52.9,43.0,30.05,South,187,1.0,-999.0,70,-99.99,,,0.00,weatherlink.com 1.10,2013-05-17 12:02:00,
2013-05-17 08:17:00,53.6,44.0,30.06,South,173,8.0,-999.0,69,-99.99,,,0.00,weatherlink.com 1.10,2013-05-17 12:17:00,
2013-05-17 08:32:00,54.1,43.0,30.06,SSE,152,2.0,-999.0,67,-99.99,,,0.00,weatherlink.com 1.10,2013-05-17 12:32:00,
2013-05-17 08:47:00,55.0,44.0,30.07,SW,214,6.0,-999.0,66,-99.99,,,0.00,weatherlink.com 1.10,2013-05-17 12:47:00,
2013-05-17 09:02:00,55.4,45.0,30.07,SSW,213,7.0,-999.0,68,-99.99,,,0.00,weatherlink.com 1.10,2013-05-17 13:02:00,
2013-05-17 09:17:00,56.4,45.0,30.07,SSW,203,4.0,-999.0,65,-99.99,,,0.00,weatherlink.com 1.10,2013-05-17 13:17:00,
2013-05-17 09:32:00,57.2,45.0,30.07,SSW,213,7.0,-999.0,64,-99.99,,,0.00,weatherlink.com 1.10,2013-05-17 13:32:00,
2013-05-17 09:47:00,57.8,44.0,30.07,SSE,156,6.0,-999.0,61,-99.99,,,0.00,weatherlink.com 1.10,2013-05-17 13:47:00,
2013-05-17 10:02:00,58.7,45.0,30.07,South,178,4.0,-999.0,60,-99.99,,,0.00,weatherlink.com 1.10,2013-05-17 14:02:00,
2013-05-17 10:17:00,60.0,45.0,30.07,SSW,207,8.0,-999.0,59,-99.99,,,0.00,weatherlink.com 1.10,2013-05-17 14:17:00,
2013-05-17 10:32:00,59.7,44.0,30.07,SSW,200,3.0,-999.0,57,-99.99,,,0.00,weatherlink.com 1.10,2013-05-17 14:32:00,
2013-05-17 10:47:00,61.4,46.0,30.07,South,175,0.0,-999.0,57,-99.99,,,0.00,weatherlink.com 1.10,2013-05-17 14:47:00,
2013-05-17 11:02:00,61.5,44.0,30.08,SE,135,2.0,-999.0,53,-99.99,,,0.00,weatherlink.com 1.10,2013-05-17 15:02:00,
2013-05-17 11:17:00,62.1,44.0,30.08,SSW,200,7.0,-999.0,52,-99.99,,,0.00,weatherlink.com 1.10,2013-05-17 15:17:00,
2013-05-17 11:32:00,63.1,45.0,30.08,SSE,157,5.0,-999.0,52,-99.99,,,0.00,weatherlink.com 1.10,2013-05-17 15:32:00,
2013-05-17 11:47:00,64.0,45.0,30.07,SE,142,5.0,-999.0,50,-99.99,,,0.00,weatherlink.com 1.10,2013-05-17 15:47:00,
2013-05-17 12:02:00,64.6,45.0,30.07,SE,138,5.0,-999.0,50,-99.99,,,0.00,weatherlink.com 1.10,2013-05-17 16:02:00,
2013-05-17 12:18:00,65.4,47.0,30.07,SE,136,5.0,-999.0,52,-99.99,,,0.00,weatherlink.com 1.10,2013-05-17 16:18:00,
2013-05-17 12:33:00,66.5,45.0,30.07,SE,132,8.0,-999.0,47,-99.99,,,0.00,weatherlink.com 1.10,2013-05-17 16:33:00,
2013-05-17 12:48:00,67.1,45.0,30.07,SSW,203,5.0,-999.0,45,-99.99,,,0.00,weatherlink.com 1.10,2013-05-17 16:48:00,
2013-05-17 13:03:00,68.1,46.0,30.06,NE,35,2.0,-999.0,46,-99.99,,,0.00,weatherlink.com 1.10,2013-05-17 17:03:00,
2013-05-17 13:18:00,68.6,47.0,30.07,SSW,211,4.0,-999.0,46,-99.99,,,0.00,weatherlink.com 1.10,2013-05-17 17:18:00,
2013-05-17 13:33:00,68.9,46.0,30.07,SW,216,3.0,-999.0,44,-99.99,,,0.00,weatherlink.com 1.10,2013-05-17 17:33:00,
2013-05-17 13:48:00,69.1,46.0,30.07,South,191,0.0,-999.0,44,-99.99,,,0.00,weatherlink.com 1.10,2013-05-17 17:48:00,
2013-05-17 14:03:00,69.4,48.0,30.07,SSE,150,4.0,-999.0,46,-99.99,,,0.00,weatherlink.com 1.10,2013-05-17 18:03:00,
2013-05-17 14:18:00,69.9,49.0,30.07,ESE,116,6.0,-999.0,48,-99.99,,,0.00,weatherlink.com 1.10,2013-05-17 18:18:00,
2013-05-17 14:33:00,70.2,48.0,30.07,SE,136,6.0,-999.0,45,-99.99,,,0.00,weatherlink.com 1.10,2013-05-17 18:33:00,
2013-05-17 14:48:00,70.4,47.0,30.06,ESE,112,1.0,-999.0,43,-99.99,,,0.00,weatherlink.com 1.10,2013-05-17 18:48:00,
2013-05-17 15:03:00,70.6,47.0,30.07,SE,133,6.0,-999.0,43,-99.99,,,0.00,weatherlink.com 1.10,2013-05-17 19:03:00,
2013-05-17 15:18:00,70.4,45.0,30.07,SSE,151,6.0,-999.0,41,-99.99,,,0.00,weatherlink.com 1.10,2013-05-17 19:18:00,
2013-05-17 15:33:00,71.0,47.0,30.06,SE,130,5.0,-999.0,42,-99.99,,,0.00,weatherlink.com 1.10,2013-05-17 19:33:00,
2013-05-17 15:48:00,71.3,47.0,30.05,East,95,2.0,-999.0,42,-99.99,,,0.00,weatherlink.com 1.10,2013-05-17 19:48:00,
2013-05-17 16:03:00,71.7,47.0,30.05,SSE,153,5.0,-999.0,41,-99.99,,,0.00,weatherlink.com 1.10,2013-05-17 20:03:00,
2013-05-17 16:18:00,71.7,46.0,30.04,SE,131,2.0,-999.0,40,-99.99,,,0.00,weatherlink.com 1.10,2013-05-17 20:18:00,
2013-05-17 16:33:00,71.7,47.0,30.04,ESE,116,4.0,-999.0,42,-99.99,,,0.00,weatherlink.com 1.10,2013-05-17 20:33:00,
2013-05-17 16:48:00,71.9,46.0,30.03,SE,134,5.0,-999.0,40,-99.99,,,0.00,weatherlink.com 1.10,2013-05-17 20:48:00,
2013-05-17 17:03:00,71.2,48.0,30.03,SSE,162,2.0,-999.0,44,-99.99,,,0.00,weatherlink.com 1.10,2013-05-17 21:03:00,
2013-05-17 17:18:00,71.0,47.0,30.03,SSE,151,2.0,-999.0,42,-99.99,,,0.00,weatherlink.com 1.10,2013-05-17 21:18:00,
2013-05-17 17:33:00,71.1,47.0,30.04,ENE,70,1.0,-999.0,42,-99.99,,,0.00,weatherlink.com 1.10,2013-05-17 21:33:00,
2013-05-17 17:48:00,70.1,46.0,30.04,ESE,119,4.0,-999.0,42,-99.99,,,0.00,weatherlink.com 1.10,2013-05-17 21:48:00,
2013-05-17 18:03:00,69.3,46.0,30.04,SE,132,4.0,-999.0,43,-99.99,,,0.00,weatherlink.com 1.10,2013-05-17 22:03:00,
2013-05-17 18:18:00,69.6,46.0,30.04,ESE,115,4.0,-999.0,43,-99.99,,,0.00,weatherlink.com 1.10,2013-05-17 22:18:00,
2013-05-17 18:33:00,68.8,45.0,30.04,SE,134,5.0,-999.0,42,-99.99,,,0.00,weatherlink.com 1.10,2013-05-17 22:33:00,
2013-05-17 18:48:00,68.3,44.0,30.05,SSE,149,5.0,-999.0,42,-99.99,,,0.00,weatherlink.com 1.10,2013-05-17 22:48:00,
2013-05-17 19:03:00,68.0,45.0,30.05,SE,135,4.0,-999.0,43,-99.99,,,0.00,weatherlink.com 1.10,2013-05-17 23:03:00,
2013-05-17 19:18:00,67.9,44.0,30.05,ESE,118,6.0,-999.0,42,-99.99,,,0.00,weatherlink.com 1.10,2013-05-17 23:18:00,
2013-05-17 19:33:00,67.7,45.0,30.05,SE,134,2.0,-999.0,44,-99.99,,,0.00,weatherlink.com 1.10,2013-05-17 23:33:00,
2013-05-17 19:48:00,67.5,44.0,30.06,SSE,167,4.0,-999.0,43,-99.99,,,0.00,weatherlink.com 1.10,2013-05-17 23:48:00,
2013-05-17 20:03:00,67.2,46.0,30.06,SE,136,2.0,-999.0,46,-99.99,,,0.00,weatherlink.com 1.10,2013-05-18 00:03:00,
2013-05-17 20:18:00,66.3,48.0,30.07,ESE,121,7.0,-999.0,52,-99.99,,,0.00,weatherlink.com 1.10,2013-05-18 00:18:00,
2013-05-17 20:33:00,65.5,48.0,30.07,ESE,110,2.0,-999.0,54,-99.99,,,0.00,weatherlink.com 1.10,2013-05-18 00:33:00,
2013-05-17 20:48:00,64.6,48.0,30.07,ESE,116,5.0,-999.0,56,-99.99,,,0.00,weatherlink.com 1.10,2013-05-18 00:48:00,
2013-05-17 21:03:00,64.1,48.0,30.07,SE,146,1.0,-999.0,57,-99.99,,,0.00,weatherlink.com 1.10,2013-05-18 01:03:00,
2013-05-17 21:18:00,63.7,48.0,30.08,SSE,160,2.0,-999.0,57,-99.99,,,0.00,weatherlink.com 1.10,2013-05-18 01:18:00,
2013-05-17 21:33:00,63.4,47.0,30.08,SE,126,2.0,-999.0,56,-99.99,,,0.00,weatherlink.com 1.10,2013-05-18 01:33:00,
2013-05-17 21:48:00,63.1,47.0,30.08,SE,144,5.0,-999.0,56,-99.99,,,0.00,weatherlink.com 1.10,2013-05-18 01:48:00,
2013-05-17 22:03:00,62.8,47.0,30.08,SE,134,11.0,-999.0,56,-99.99,,,0.00,weatherlink.com 1.10,2013-05-18 02:03:00,
2013-05-17 22:18:00,62.2,46.0,30.08,SSE,151,5.0,-999.0,56,-99.99,,,0.00,weatherlink.com 1.10,2013-05-18 02:18:00,
2013-05-17 22:33:00,61.9,46.0,30.08,South,169,4.0,-999.0,56,-99.99,,,0.00,weatherlink.com 1.10,2013-05-18 02:33:00,
2013-05-17 22:48:00,61.6,46.0,30.08,SSE,158,5.0,-999.0,56,-99.99,,,0.00,weatherlink.com 1.10,2013-05-18 02:48:00,
2013-05-17 23:03:00,61.3,45.0,30.09,SE,134,2.0,-999.0,56,-99.99,,,0.00,weatherlink.com 1.10,2013-05-18 03:03:00,
2013-05-17 23:18:00,60.9,46.0,30.09,SSE,167,4.0,-999.0,58,-99.99,,,0.00,weatherlink.com 1.10,2013-05-18 03:18:00,
2013-05-17 23:33:00,60.6,45.0,30.08,SSE,152,2.0,-999.0,57,-99.99,,,0.00,weatherlink.com 1.10,2013-05-18 03:33:00,
2013-05-17 23:48:00,60.2,45.0,30.09,SE,146,2.0,-999.0,57,-99.99,,,0.00,weatherlink.com 1.10,2013-05-18 03:48:00,